• In Österreich
  • Länderverzeichnis
  • Für 7 Tage
  • Wassertemperatur
  • Satellitenkarten
  • Wetterkarte
  • News
  • Widgets
  • user-avatar
    Anmelden

    Stündliche Wetter Ransko

    Heute, 25 September, Dienstag

    Zeit Temperatur Niederschläge Wind Luftdruck Luftfeuchtigkeit
    00:00 +6°C° 0 mm 4 m/S 766 mmHg 75%
    01:00 +5°C° 0 mm 4 m/S 766 mmHg 79%
    02:00 +5°C° 0 mm 4 m/S 767 mmHg 80%
    03:00 +5°C° 0 mm 4 m/S 767 mmHg 81%
    04:00 +5°C° 0 mm 4 m/S 767 mmHg 81%
    05:00 +5°C° 0 mm 4 m/S 768 mmHg 81%
    06:00 +5°C° 0 mm 4 m/S 769 mmHg 81%
    07:00 +5°C° 0 mm 4 m/S 769 mmHg 80%
    08:00 +7°C° 0 mm 4 m/S 770 mmHg 73%
    09:00 +10°C° 0 mm 4 m/S 770 mmHg 65%
    10:00 +11°C° 0 mm 4 m/S 770 mmHg 58%
    11:00 +12°C° 0.1 mm 4 m/S 771 mmHg 55%
    12:00 +13°C° 0.1 mm 4 m/S 771 mmHg 51%
    13:00 +13°C° 0 mm 4 m/S 771 mmHg 47%
    14:00 +13°C° 0 mm 4 m/S 771 mmHg 47%
    15:00 +13°C° 0 mm 4 m/S 771 mmHg 47%
    16:00 +13°C° 0 mm 4 m/S 771 mmHg 47%
    17:00 +12°C° 0 mm 3 m/S 772 mmHg 52%
    18:00 +10°C° 0 mm 3 m/S 772 mmHg 58%
    19:00 +9°C° 0 mm 2 m/S 772 mmHg 63%
    20:00 +8°C° 0 mm 2 m/S 772 mmHg 65%
    21:00 +8°C° 0 mm 2 m/S 773 mmHg 66%
    22:00 +7°C° 0 mm 2 m/S 773 mmHg 68%
    23:00 +7°C° 0 mm 2 m/S 773 mmHg 70%

    Morgen, 26 September, Mittwoch

    Zeit Temperatur Niederschläge Wind Luftdruck Luftfeuchtigkeit
    00:00 +7°C° 0 mm 2 m/S 773 mmHg 71%
    01:00 +6°C° 0 mm 2 m/S 773 mmHg 72%
    02:00 +6°C° 0 mm 2 m/S 773 mmHg 73%
    03:00 +6°C° 0 mm 2 m/S 772 mmHg 74%
    04:00 +5°C° 0 mm 3 m/S 772 mmHg 75%
    05:00 +5°C° 0 mm 3 m/S 772 mmHg 73%
    06:00 +7°C° 0 mm 3 m/S 772 mmHg 71%
    07:00 +6°C° 0 mm 4 m/S 772 mmHg 69%
    08:00 +7°C° 0 mm 4 m/S 772 mmHg 63%
    09:00 +9°C° 0 mm 5 m/S 771 mmHg 58%
    10:00 +10°C° 0 mm 5 m/S 771 mmHg 52%
    11:00 +12°C° 0 mm 5 m/S 770 mmHg 48%
    12:00 +13°C° 0 mm 6 m/S 770 mmHg 44%
    13:00 +14°C° 0 mm 6 m/S 769 mmHg 41%
    14:00 +14°C° 0 mm 5 m/S 768 mmHg 41%
    15:00 +14°C° 0 mm 5 m/S 768 mmHg 42%
    16:00 +14°C° 0 mm 5 m/S 767 mmHg 43%
    17:00 +14°C° 0 mm 5 m/S 767 mmHg 45%
    18:00 +13°C° 0 mm 5 m/S 766 mmHg 46%
    19:00 +13°C° 0 mm 5 m/S 766 mmHg 48%
    20:00 +13°C° 0 mm 5 m/S 766 mmHg 48%
    21:00 +13°C° 0 mm 5 m/S 766 mmHg 49%
    22:00 +13°C° 0 mm 5 m/S 766 mmHg 50%
    23:00 +13°C° 0 mm 5 m/S 766 mmHg 52%

    übermorgen, 27 September, Donnerstag

    Zeit Temperatur Niederschläge Wind Luftdruck Luftfeuchtigkeit
    00:00 +13°C° 0 mm 5 m/S 766 mmHg 54%
    01:00 +13°C° 0 mm 5 m/S 766 mmHg 56%
    02:00 +12°C° 0 mm 5 m/S 766 mmHg 59%
    03:00 +12°C° 0 mm 5 m/S 765 mmHg 62%
    04:00 +12°C° 0 mm 5 m/S 765 mmHg 64%
    05:00 +12°C° 0 mm 5 m/S 765 mmHg 66%
    06:00 +12°C° 0 mm 5 m/S 765 mmHg 68%
    07:00 +12°C° 0 mm 5 m/S 765 mmHg 70%
    08:00 +13°C° 0 mm 5 m/S 765 mmHg 68%
    09:00 +15°C° 0 mm 5 m/S 766 mmHg 66%
    10:00 +16°C° 0 mm 5 m/S 766 mmHg 64%
    11:00 +19°C° 0 mm 5 m/S 765 mmHg 62%
    12:00 +20°C° 0 mm 5 m/S 765 mmHg 60%
    13:00 +21°C° 0 mm 5 m/S 764 mmHg 58%
    14:00 +21°C° 0 mm 4 m/S 764 mmHg 59%
    15:00 +21°C° 0 mm 4 m/S 763 mmHg 59%
    16:00 +21°C° 0 mm 4 m/S 763 mmHg 60%
    17:00 +20°C° 0 mm 4 m/S 762 mmHg 64%
    18:00 +19°C° 0 mm 3 m/S 762 mmHg 69%
    19:00 +17°C° 0 mm 3 m/S 762 mmHg 73%
    20:00 +17°C° 0 mm 3 m/S 761 mmHg 72%
    21:00 +16°C° 0 mm 3 m/S 761 mmHg 70%
    22:00 +16°C° 0 mm 3 m/S 760 mmHg 69%
    23:00 +15°C° 0 mm 4 m/S 760 mmHg 68%

    28 September, Freitag

    Zeit Temperatur Niederschläge Wind Luftdruck Luftfeuchtigkeit
    00:00 +14°C° 0 mm 4 m/S 760 mmHg 67%
    01:00 +14°C° 0 mm 4 m/S 759 mmHg 66%
    02:00 +13°C° 0 mm 4 m/S 759 mmHg 68%
    03:00 +13°C° 0 mm 4 m/S 759 mmHg 69%
    04:00 +12°C° 0 mm 4 m/S 758 mmHg 70%
    05:00 +12°C° 0.2 mm 4 m/S 759 mmHg 73%
    06:00 +12°C° 0.2 mm 4 m/S 759 mmHg 77%
    07:00 +13°C° 0.2 mm 4 m/S 759 mmHg 80%
    08:00 +13°C° 0 mm 4 m/S 759 mmHg 75%
    09:00 +14°C° 0 mm 4 m/S 760 mmHg 69%
    10:00 +14°C° 0 mm 4 m/S 760 mmHg 64%
    11:00 +15°C° 0 mm 4 m/S 760 mmHg 58%
    12:00 +15°C° 0 mm 4 m/S 760 mmHg 52%
    13:00 +17°C° 0 mm 4 m/S 760 mmHg 46%
    14:00 +15°C° 0 mm 4 m/S 760 mmHg 47%
    15:00 +15°C° 0 mm 4 m/S 760 mmHg 47%
    16:00 +15°C° 0 mm 4 m/S 760 mmHg 48%
    17:00 +14°C° 0 mm 3 m/S 760 mmHg 53%
    18:00 +13°C° 0 mm 3 m/S 761 mmHg 57%
    19:00 +12°C° 0 mm 2 m/S 761 mmHg 62%
    20:00 +12°C° 0 mm 2 m/S 761 mmHg 64%
    21:00 +12°C° 0 mm 2 m/S 761 mmHg 67%
    22:00 +10°C° 0 mm 2 m/S 761 mmHg 69%
    23:00 +10°C° 0 mm 2 m/S 762 mmHg 71%

    29 September, Samstag

    Zeit Temperatur Niederschläge Wind Luftdruck Luftfeuchtigkeit
    00:00 +9°C° 0 mm 2 m/S 762 mmHg 74%
    01:00 +9°C° 0 mm 2 m/S 762 mmHg 77%
    02:00 +8°C° 0 mm 2 m/S 762 mmHg 78%
    03:00 +7°C° 0 mm 2 m/S 762 mmHg 79%
    04:00 +7°C° 0 mm 2 m/S 762 mmHg 81%
    05:00 +7°C° 0 mm 2 m/S 763 mmHg 80%
    06:00 +7°C° 0 mm 2 m/S 763 mmHg 79%
    07:00 +7°C° 0 mm 2 m/S 763 mmHg 78%
    08:00 +9°C° 0 mm 2 m/S 764 mmHg 70%
    09:00 +12°C° 0 mm 2 m/S 764 mmHg 63%
    10:00 +13°C° 0 mm 2 m/S 765 mmHg 55%
    11:00 +14°C° 0.1 mm 2 m/S 765 mmHg 51%
    12:00 +15°C° 0.1 mm 2 m/S 765 mmHg 47%
    13:00 +15°C° 0.1 mm 2 m/S 765 mmHg 43%
    14:00 +15°C° 0 mm 2 m/S 765 mmHg 43%
    15:00 +15°C° 0 mm 2 m/S 765 mmHg 43%
    16:00 +15°C° 0 mm 1 m/S 765 mmHg 43%
    17:00 +14°C° 0 mm 1 m/S 765 mmHg 48%
    18:00 +12°C° 0 mm 1 m/S 765 mmHg 52%
    19:00 +11°C° 0 mm 1 m/S 766 mmHg 57%
    20:00 +11°C° 0 mm 1 m/S 766 mmHg 59%
    21:00 +10°C° 0 mm 1 m/S 766 mmHg 61%
    22:00 +8°C° 0 mm 0 m/S 766 mmHg 63%
    23:00 +9°C° 0 mm 1 m/S 766 mmHg 64%

    30 September, Sonntag

    Zeit Temperatur Niederschläge Wind Luftdruck Luftfeuchtigkeit
    00:00 +9°C° 0 mm 1 m/S 766 mmHg 65%
    01:00 +8°C° 0 mm 1 m/S 766 mmHg 66%
    02:00 +8°C° 0 mm 1 m/S 766 mmHg 66%
    03:00 +8°C° 0 mm 1 m/S 766 mmHg 67%
    04:00 +7°C° 0 mm 1 m/S 765 mmHg 68%
    05:00 +8°C° 0 mm 1 m/S 765 mmHg 68%
    06:00 +8°C° 0 mm 1 m/S 765 mmHg 67%
    07:00 +8°C° 0 mm 1 m/S 765 mmHg 67%
    08:00 +10°C° 0 mm 1 m/S 765 mmHg 60%
    09:00 +12°C° 0 mm 1 m/S 765 mmHg 52%
    10:00 +14°C° 0 mm 1 m/S 765 mmHg 45%
    11:00 +15°C° 0 mm 1 m/S 764 mmHg 42%
    12:00 +16°C° 0 mm 1 m/S 764 mmHg 38%
    13:00 +16°C° 0 mm 1 m/S 763 mmHg 35%
    14:00 +16°C° 0 mm 1 m/S 763 mmHg 35%
    15:00 +16°C° 0 mm 1 m/S 762 mmHg 35%
    16:00 +16°C° 0 mm 1 m/S 762 mmHg 36%
    17:00 +14°C° 0 mm 1 m/S 762 mmHg 39%
    18:00 +13°C° 0 mm 1 m/S 762 mmHg 43%
    19:00 +11°C° 0 mm 1 m/S 762 mmHg 46%
    20:00 +10°C° 0 mm 1 m/S 762 mmHg 47%
    21:00 +10°C° 0 mm 1 m/S 762 mmHg 48%
    22:00 +9°C° 0 mm 1 m/S 762 mmHg 49%
    23:00 +9°C° 0 mm 1 m/S 761 mmHg 50%
    Mehr zeigen